TimeCDT,TemperatureF,Dew PointF,Humidity,Sea Level PressureIn,VisibilityMPH,Wind Direction,Wind SpeedMPH,Gust SpeedMPH,PrecipitationIn,Events,Conditions,WindDirDegrees,DateUTC
12:53 AM,72.0,69.1,91,30.01,9.0,Calm,Calm,-,N/A,,Clear,0,2013-08-29 05:53:00
1:53 AM,71.1,69.1,93,30.01,9.0,Calm,Calm,-,N/A,,Clear,0,2013-08-29 06:53:00
2:53 AM,70.0,68.0,93,30.00,8.0,Calm,Calm,-,N/A,,Clear,0,2013-08-29 07:53:00
3:53 AM,73.0,70.0,90,30.00,8.0,NW,3.5,-,N/A,,Clear,310,2013-08-29 08:53:00
4:53 AM,70.0,69.1,97,30.00,5.0,Calm,Calm,-,N/A,,Clear,0,2013-08-29 09:53:00
5:53 AM,69.1,66.9,93,30.01,6.0,Calm,Calm,-,N/A,,Clear,0,2013-08-29 10:53:00
6:20 AM,68.0,66.2,94,30.03,2.0,Calm,Calm,-,N/A,,Clear,0,2013-08-29 11:20:00
6:53 AM,69.1,68.0,96,30.03,1.8,Calm,Calm,-,N/A,,Clear,0,2013-08-29 11:53:00
7:03 AM,69.8,68.0,94,30.04,3.0,Calm,Calm,-,N/A,,Clear,0,2013-08-29 12:03:00
7:53 AM,73.9,71.1,91,30.04,3.0,Calm,Calm,-,N/A,,Clear,0,2013-08-29 12:53:00
8:53 AM,78.1,73.0,84,30.04,10.0,Calm,Calm,-,N/A,,Clear,0,2013-08-29 13:53:00
9:53 AM,82.9,73.9,74,30.04,10.0,West,3.5,-,N/A,,Clear,270,2013-08-29 14:53:00
10:53 AM,88.0,73.0,61,30.04,10.0,NW,4.6,-,N/A,,Clear,310,2013-08-29 15:53:00
11:53 AM,91.0,73.0,55,30.03,10.0,Calm,Calm,-,N/A,,Clear,0,2013-08-29 16:53:00
12:53 PM,93.0,72.0,50,30.02,10.0,Variable,6.9,-,N/A,,Clear,0,2013-08-29 17:53:00
1:53 PM,93.9,70.0,46,30.01,10.0,Variable,5.8,-,N/A,,Partly Cloudy,0,2013-08-29 18:53:00
2:53 PM,95.0,69.1,43,29.99,10.0,Calm,Calm,-,N/A,,Partly Cloudy,0,2013-08-29 19:53:00
3:53 PM,93.9,70.0,46,29.97,10.0,WNW,5.8,-,N/A,,Clear,290,2013-08-29 20:53:00
4:53 PM,93.0,71.1,49,29.96,10.0,WSW,4.6,-,N/A,,Clear,250,2013-08-29 21:53:00
5:53 PM,91.0,73.0,55,29.96,10.0,West,4.6,-,N/A,,Clear,260,2013-08-29 22:53:00
6:53 PM,88.0,75.9,67,29.96,10.0,Calm,Calm,-,N/A,,Clear,0,2013-08-29 23:53:00
7:53 PM,81.0,73.9,79,29.96,10.0,SW,3.5,-,N/A,,Clear,220,2013-08-30 00:53:00
8:53 PM,77.0,73.0,88,29.98,10.0,Calm,Calm,-,N/A,,Clear,0,2013-08-30 01:53:00
9:53 PM,75.0,72.0,90,29.97,10.0,Calm,Calm,-,N/A,,Clear,0,2013-08-30 02:53:00
10:53 PM,75.0,72.0,90,29.96,10.0,Calm,Calm,-,N/A,,Clear,0,2013-08-30 03:53:00
11:53 PM,73.0,71.1,93,29.96,10.0,Calm,Calm,-,N/A,,Clear,0,2013-08-30 04:53:00